Location: OLV Amersfoort
(52.1552°N, 5.3872°E)
Time: 14:08:16
(UTC+02:00)

ISS - Visible Passes

Search period start: 28 March 2017 00:00
Search period end: 07 April 2017 00:00
Orbit: 399 x 409 km, 51.6° (Epoch: 28 March)

Date Brightness Start Highest point End Pass type
(mag) Time Alt. Az. Time Alt. Az. Time Alt. Az.
28 Mar -1.8 20:59:59 10° SSE 21:01:24 12° SE 21:01:56 12° SE visible
28 Mar -1.3 22:34:07 10° SW 22:34:38 14° SW 22:34:38 14° SW visible
29 Mar -3.0 21:42:04 10° SW 21:45:00 31° SSE 21:45:06 31° SSE visible
30 Mar -2.4 20:50:14 10° SSW 20:52:48 21° SSE 20:55:21 10° E visible
30 Mar -3.0 22:25:39 10° WSW 22:28:01 42° SW 22:28:01 42° SW visible
31 Mar -3.6 21:33:23 10° SW 21:36:34 49° SSE 21:38:04 26° E visible
31 Mar -1.4 23:09:38 10° W 23:10:45 19° W 23:10:45 19° W visible
01 Apr -4.0 22:17:15 10° W 22:20:32 80° S 22:20:39 77° SE visible
02 Apr -3.9 21:24:53 10° WSW 21:28:08 69° SSE 21:30:28 18° E visible
02 Apr -2.1 23:01:18 10° W 23:03:06 30° W 23:03:06 30° W visible
03 Apr -4.0 22:08:52 10° W 22:12:09 84° S 22:12:50 53° E visible
03 Apr -0.7 23:45:20 10° W 23:45:28 11° W 23:45:28 11° W visible
04 Apr -3.9 21:16:27 10° W 21:19:43 82° S 21:22:29 14° E visible
04 Apr -2.7 22:52:54 10° W 22:55:08 38° WSW 22:55:08 38° WSW visible
05 Apr -3.9 22:00:27 10° W 22:03:43 75° S 22:04:45 40° ESE visible
05 Apr -0.9 23:37:01 10° W 23:37:23 12° W 23:37:23 12° W visible
06 Apr -3.8 21:07:59 10° W 21:11:15 83° S 21:14:21 11° E visible
06 Apr -2.8 22:44:28 10° W 22:46:59 37° SW 22:46:59 37° SW visible
